User: anonymous   Login
Location: Unspecified
(0.0000°N, 0.0000°E)
Time: 15:25:49
(UTC+00:00)
Language:

LEMUR 2 SOKOLSKY - Orbit

View from above orbital plane
View from above orbital plane
View from above satellite
View from above satellite

Ground track
Ground track

The orbit data is extracted from the following two-line orbital elements,

1 41872U 16062D   19078.54940661 +.00002019 +00000-0 +93070-4 0  9992
2 41872 051.6871 280.0436 0003025 140.6228 219.4971 15.25065754128585
Epoch (UTC): 19 March 2019 13:11:08
Eccentricity: 0.0003025
inclination: 51.6871°
perigee height: 488 km
apogee height: 492 km
right ascension of ascending node: 280.0436°
argument of perigee: 140.6228°
revolutions per day: 15.25065754
mean anomaly at epoch: 219.4971°
orbit number at epoch: 12858

The dashed part of the orbit path shows where the satellite is in the earth's shadow,  

DLR